FW8937 Weather Reports


Display with metric or nautical units.
time (UTC)temp
F
wind
direction
speed
MPH
gust
MPH
rain 1hr
in
rain 24hr
in
rain mn
in
humidity
%
barometer
mb
20260505172813 29 0 3.0 8.0 0.00 0.27 0.02 91 1012.5
20260505172307 29 0 4.0 8.0 0.00 0.27 0.02 92 1012.5
20260505171801 29 0 3.0 8.0 0.00 0.27 0.02 92 1012.8
20260505171255 29 0 2.0 7.0 0.00 0.27 0.02 92 1012.8
20260505170750 29 0 3.0 8.0 0.00 0.27 0.02 92 1012.8
20260505170501 29 0 3.0 8.0 0.00 0.27 0.02 92 1012.8
20260505165737 29 0 4.0 9.0 0.00 0.27 0.02 92 1012.8
20260505165231 29 0 4.0 9.0 0.00 0.27 0.02 92 1012.8
20260505164725 29 0 3.0 8.0 0.00 0.27 0.02 92 1012.8
20260505164440 29 0 4.0 8.0 0.00 0.27 0.02 92 1012.7
20260505163935 29 0 4.0 8.0 0.00 0.27 0.02 92 1012.8
20260505163207 29 0 4.0 8.0 0.00 0.27 0.02 92 1012.7
20260505162701 29 0 4.0 8.0 0.00 0.27 0.02 92 1012.7
20260505162416 29 0 4.0 8.0 0.00 0.27 0.02 92 1012.7
20260505161649 29 0 4.0 8.0 0.00 0.27 0.02 92 1012.8
20260505161143 29 106 3.0 7.0 0.00 0.27 0.02 92 1013.0
20260505160904 29 103 3.0 7.0 0.00 0.27 0.02 92 1013.0
20260505160131 29 0 3.0 8.0 0.00 0.27 0.02 92 1013.0
20260505153054 28 0 3.0 8.0 0.00 0.27 0.02 92 1013.1
20260505152549 28 0 3.0 8.0 0.00 0.27 0.02 92 1013.0
20260505152043 28 0 3.0 6.0 0.00 0.27 0.02 92 1013.2
20260505151758 28 0 4.0 6.0 0.00 0.27 0.02 92 1013.4
20260505151031 28 0 3.0 6.0 0.00 0.27 0.02 92 1013.2
20260505150525 28 0 3.0 5.0 0.00 0.27 0.02 92 1013.2
20260505140438 27 0 3.0 5.0 0.00 0.27 0.02 92 1013.4
20260505140202 27 0 3.0 5.0 0.00 0.27 0.02 92 1013.4
20260505124931 28 0 2.0 5.0 0.00 0.27 0.02 92 1013.0
20260505124431 28 75 3.0 5.0 0.00 0.27 0.02 92 1012.8
20260505123931 28 75 3.0 6.0 0.00 0.27 0.02 92 1012.8
20260505123431 28 71 3.0 6.0 0.00 0.27 0.02 92 1012.8
20260505122927 28 71 3.0 5.0 0.00 0.27 0.02 92 1012.8
20260505122423 28 0 2.0 5.0 0.00 0.27 0.02 92 1012.6
20260505121924 28 67 3.0 8.0 0.00 0.27 0.02 92 1012.8
20260505121424 28 67 3.0 8.0 0.00 0.27 0.02 92 1012.8
20260505120923 29 68 4.0 10.0 0.00 0.27 0.02 92 1013.0
20260505120424 29 0 3.0 10.0 0.00 0.27 0.02 92 1012.8
20260505115924 29 0 2.0 7.0 0.00 0.27 0.02 92 1012.7
20260505115423 29 0 2.0 5.0 0.00 0.27 0.02 92 1012.7
20260505114922 29 0 2.0 5.0 0.00 0.27 0.02 92 1012.6
20260505114423 29 0 3.0 6.0 0.00 0.27 0.02 92 1012.7
20260505113921 29 0 3.0 6.0 0.00 0.27 0.02 92 1012.7
20260505113421 29 79 3.0 6.0 0.00 0.27 0.02 92 1012.7
20260505112922 29 0 3.0 8.0 0.00 0.27 0.02 92 1012.6
20260505112422 29 0 2.0 8.0 0.00 0.27 0.02 92 1012.5
20260505111916 29 0 2.0 8.0 0.00 0.27 0.02 92 1012.6
20260505111636 29 0 3.0 8.0 0.00 0.27 0.02 92 1012.6
20260505110904 30 0 2.0 4.0 0.00 0.27 0.02 92 1012.6
20260505110358 30 73 2.0 5.0 0.00 0.27 0.02 92 1012.6
20260505101802 31 0 4.0 8.0 0.00 0.27 0.02 92 1012.3
20260505101256 31 0 4.0 8.0 0.00 0.27 0.02 92 1012.3
20260505100750 31 71 3.0 8.0 0.00 0.27 0.02 92 1012.3
20260505100244 32 0 3.0 8.0 0.00 0.27 0.02 92 1012.3
20260505100222 32 0 4.0 8.0 0.00 0.27 0.02 92 1012.5
20260505095232 32 0 4.0 8.0 0.00 0.27 0.02 92 1012.3
20260505094726 33 0 3.0 8.0 0.00 0.27 0.02 92 1012.3
20260505094220 33 0 3.0 7.0 0.00 0.27 0.02 92 1012.3
20260505093714 33 0 3.0 7.0 0.00 0.27 0.02 92 1012.3
20260505093208 33 0 2.0 6.0 0.00 0.27 0.02 92 1012.5
20260505092701 33 0 3.0 6.0 0.00 0.27 0.02 92 1012.5
20260505092156 34 0 3.0 6.0 0.01 0.27 0.02 92 1012.3
20260505091650 34 26 2.0 4.0 0.01 0.27 0.02 92 1012.3
20260505091144 34 30 2.0 4.0 0.01 0.27 0.02 92 1012.5
20260505090900 34 0 2.0 4.0 0.01 0.27 0.02 92 1012.5
20260505090132 35 23 1.0 3.0 0.01 0.27 0.02 92 1012.2
20260505085627 35 25 2.0 4.0 0.01 0.27 0.02 92 1012.2
20260505085120 35 23 3.0 4.0 0.01 0.27 0.02 92 1012.5
20260505084614 35 21 3.0 5.0 0.01 0.27 0.02 92 1012.5
20260505084108 35 0 1.0 5.0 0.01 0.27 0.02 92 1012.3
20260505083602 35 0 1.0 4.0 0.01 0.27 0.02 92 1012.5
20260505083056 35 0 0.0 2.0 0.01 0.27 0.02 92 1012.3
20260505082550 35 0 0.0 0.0 0.01 0.27 0.02 92 1012.6
20260505082044 35 0 0.0 0.0 0.00 0.26 0.01 92 1012.7
20260505081538 35 0 0.0 0.0 0.00 0.26 0.01 92 1012.6
20260505081032 35 0 1.0 2.0 0.01 0.26 0.01 92 1012.8
20260505080525 35 335 1.0 4.0 0.01 0.26 0.01 92 1013.0
20260505080020 35 0 1.0 4.0 0.01 0.26 0.01 92 1012.8
20260505075514 35 0 2.0 4.0 0.01 0.26 0.01 92 1012.7
20260505075008 35 333 3.0 5.0 0.01 0.26 0.01 91 1012.7
20260505074502 35 335 4.0 6.0 0.01 0.26 0.01 91 1013.0
20260505073956 35 335 4.0 6.0 0.01 0.26 0.01 91 1013.1
20260505073718 35 334 4.0 6.0 0.01 0.26 0.01 91 1013.1
20260505073158 35 334 4.0 6.0 0.01 0.26 0.01 91 1013.2
20260505073043 35 333 4.0 6.0 0.01 0.26 0.01 91 1013.2
20260505071949 35 334 5.0 8.0 0.01 0.26 0.01 91 1013.2
20260505071450 35 0 5.0 8.0 0.01 0.26 0.01 91 1013.1
20260505070953 35 0 4.0 8.0 0.00 0.25 0.00 91 1013.2
20260505070450 35 11 3.0 7.0 0.00 0.25 0.00 91 1013.2
20260505065948 35 11 2.0 5.0 0.00 0.25 0.00 91 1013.2
20260505065449 35 11 3.0 5.0 0.00 0.25 0.00 91 1013.0
20260505064948 35 11 3.0 7.0 0.01 0.25 0.00 91 1013.0
20260505064450 35 11 3.0 7.0 0.01 0.25 0.00 91 1013.1
20260505063950 35 13 3.0 4.0 0.01 0.25 0.00 91 1013.0
20260505063714 35 11 2.0 4.0 0.01 0.25 0.00 91 1013.0
20260505063211 35 11 1.0 4.0 0.01 0.25 0.00 91 1013.0
20260505062448 35 11 1.0 3.0 0.01 0.25 0.00 91 1013.1
20260505061949 35 12 1.0 3.0 0.02 0.25 0.00 91 1013.0
20260505061448 35 11 2.0 4.0 0.02 0.25 0.00 91 1013.0
20260505060949 35 12 3.0 4.0 0.02 0.25 0.00 91 1013.0
20260505060450 35 11 2.0 4.0 0.02 0.25 0.00 91 1013.0
20260505055947 35 16 2.0 7.0 0.02 0.25 0.25 91 1013.0
20260505055446 35 0 2.0 7.0 0.03 0.25 0.25 91 1013.0
20260505055200 35 221 2.0 4.0 0.02 0.24 0.24 91 1013.0
20260505054708 35 221 3.0 5.0 0.02 0.24 0.24 91 1013.0
20260505053940 35 221 3.0 5.0 0.02 0.24 0.24 91 1013.0
20260505053442 35 221 3.0 5.0 0.03 0.24 0.24 91 1012.8
20260505052940 35 221 4.0 9.0 0.03 0.24 0.24 91 1012.8
20260505052442 35 221 5.0 12.0 0.03 0.24 0.24 91 1012.7
20260505051941 35 0 6.0 12.0 0.02 0.23 0.23 91 1012.7
20260505051441 35 0 6.0 10.0 0.03 0.23 0.23 91 1012.6
20260505050942 35 0 6.0 11.0 0.03 0.23 0.23 91 1012.8
20260505050437 35 0 6.0 11.0 0.03 0.23 0.23 91 1013.0
20260505041425 34 155 6.0 9.0 0.03 0.20 0.20 90 1013.4
20260505040918 34 183 5.0 9.0 0.04 0.20 0.20 89 1013.6
20260505040413 34 0 5.0 8.0 0.04 0.20 0.20 89 1013.8
20260505035907 34 212 4.0 6.0 0.05 0.20 0.20 89 1013.6
20260505035401 34 0 3.0 5.0 0.04 0.19 0.19 89 1013.5
20260505034855 34 0 3.0 5.0 0.06 0.19 0.19 89 1013.5
20260505034349 34 210 2.0 4.0 0.07 0.19 0.19 88 1013.4
20260505034106 34 0 2.0 4.0 0.08 0.19 0.19 88 1013.6
20260505033336 34 209 2.0 3.0 0.07 0.18 0.19 88 1013.6
20260505033056 34 0 2.0 3.0 0.09 0.18 0.18 87 1013.8
20260505032325 34 0 3.0 5.0 0.11 0.18 0.18 87 1013.5
20260505031819 34 0 3.0 5.0 0.12 0.17 0.17 86 1013.6
20260505031313 34 234 1.0 4.0 0.14 0.17 0.17 86 1013.5
20260505030807 35 236 1.0 3.0 0.14 0.16 0.16 85 1013.6
20260505030537 35 236 2.0 3.0 0.15 0.16 0.16 85 1013.6
20260505025754 35 235 2.0 3.0 0.15 0.15 0.15 84 1013.9
20260505025249 35 235 2.0 4.0 0.14 0.14 0.14 84 1013.5
20260505024743 36 235 4.0 6.0 0.13 0.13 0.13 83 1013.5
20260505024237 36 238 5.0 9.0 0.12 0.12 0.12 82 1013.5
20260505023732 37 0 6.0 11.0 0.11 0.11 0.11 82 1013.5
20260505023713 38 302 5.0 11.0 0.11 0.11 0.11 83 1013.6
20260505022719 38 304 3.0 9.0 0.09 0.09 0.09 84 1013.6
20260505022213 39 0 1.0 5.0 0.07 0.07 0.07 84 1013.5
20260505021708 39 0 1.0 6.0 0.04 0.04 0.05 84 1013.4
20260505021201 40 0 3.0 10.0 0.03 0.03 0.03 84 1013.4
20260505020655 40 0 4.0 11.0 0.02 0.02 0.02 84 1013.2
20260505020149 40 59 6.0 11.0 0.01 0.01 0.01 83 1012.7
20260505015643 40 0 6.0 11.0 0.00 0.00 0.00 82 1013.0
20260505015136 41 0 7.0 12.0 0.00 0.00 0.00 81 1013.0
20260505014631 41 0 7.0 13.0 0.00 0.00 0.00 79 1012.8
20260505014125 42 0 8.0 13.0 0.00 0.00 0.00 77 1012.7
20260505013845 42 0 7.0 13.0 0.00 0.00 0.00 76 1012.7
20260505013113 42 0 4.0 13.0 0.00 0.00 0.00 76 1012.5
20260505012607 43 0 3.0 6.0 0.00 0.00 0.00 75 1012.6
20260505012101 43 0 4.0 8.0 0.00 0.00 0.00 74 1012.7
20260505011555 43 0 5.0 9.0 0.00 0.00 0.00 74 1012.8
20260505011049 43 0 4.0 9.0 0.00 0.00 0.00 72 1012.8
20260505010543 44 0 5.0 10.0 0.00 0.00 0.00 70 1012.7
20260505010037 44 156 6.0 12.0 0.00 0.00 0.00 69 1012.8
20260505005531 44 140 5.0 12.0 0.00 0.00 0.00 69 1012.6
20260505005025 44 172 5.0 11.0 0.00 0.00 0.00 70 1012.7
20260505004519 44 0 6.0 12.0 0.00 0.00 0.00 69 1012.8
20260505004234 44 0 6.0 12.0 0.00 0.00 0.00 69 1012.7
20260505003743 44 0 6.0 12.0 0.00 0.00 0.00 68 1012.8
20260505003238 45 0 5.0 10.0 0.00 0.00 0.00 68 1012.8
20260505002514 45 150 7.0 12.0 0.00 0.00 0.00 69 1012.8
20260505002015 45 0 8.0 12.0 0.00 0.00 0.00 69 1012.8
20260505001514 45 127 6.0 12.0 0.00 0.00 0.00 70 1012.8
20260505001238 45 114 4.0 11.0 0.00 0.00 0.00 70 1012.8
20260505000513 45 0 3.0 10.0 0.00 0.00 0.00 69 1013.0
20260505000015 45 138 3.0 7.0 0.00 0.00 0.00 67 1012.8
20260504235512 45 138 2.0 7.0 0.00 0.00 0.00 68 1012.8
20260504235011 45 105 1.0 5.0 0.00 0.00 0.00 67 1013.0
20260504234513 45 90 2.0 5.0 0.00 0.00 0.00 67 1013.0
20260504234010 45 92 3.0 7.0 0.00 0.00 0.00 66 1012.7
20260504233509 45 88 2.0 7.0 0.00 0.00 0.00 67 1012.7
20260504233009 45 83 1.0 5.0 0.00 0.00 0.00 66 1013.0
20260504233001 45 82 1.0 5.0 0.00 0.00 0.00 65 1013.0
20260504232009 45 82 2.0 7.0 0.00 0.00 0.00 65 1012.8
20260504231510 45 0 2.0 7.0 0.00 0.00 0.00 66 1012.5
20260504231010 45 65 2.0 6.0 0.00 0.00 0.00 65 1012.7
20260504230511 45 65 2.0 6.0 0.00 0.00 0.00 68 1012.6
20260504230009 45 69 2.0 6.0 0.00 0.00 0.00 66 1012.3
20260504225729 46 55 3.0 9.0 0.00 0.00 0.00 66 1012.5
20260504225009 46 55 2.0 9.0 0.00 0.00 0.00 65 1012.5
20260504224510 46 32 1.0 5.0 0.00 0.00 0.00 65 1012.6
20260504224234 46 32 1.0 6.0 0.00 0.00 0.00 65 1013.1
20260504223510 46 33 2.0 6.0 0.00 0.00 0.00 67 1013.1
20260504223010 47 355 3.0 9.0 0.00 0.00 0.00 65 1013.2
20260504222511 47 348 4.0 13.0 0.00 0.00 0.00 67 1013.4
20260504222009 47 0 4.0 13.0 0.00 0.00 0.00 65 1013.4
20260504221510 47 323 3.0 10.0 0.00 0.00 0.00 60 1013.5
20260504221229 47 0 2.0 10.0 0.00 0.00 0.00 56 1013.4
20260504220510 48 90 3.0 10.0 0.00 0.00 0.00 54 1013.5
20260504220230 48 0 5.0 11.0 0.00 0.00 0.00 53 1012.7
20260504215507 49 94 5.0 11.0 0.00 0.00 0.00 51 1012.6
20260504215458 49 0 3.0 9.0 0.00 0.00 0.00 49 1012.6
20260504214508 50 0 3.0 9.0 0.00 0.00 0.00 48 1012.6
20260504214443 51 70 4.0 11.0 0.00 0.00 0.00 46 1012.6
20260504213456 51 77 6.0 12.0 0.00 0.00 0.00 44 1012.6
20260504212950 52 79 7.0 15.0 0.00 0.00 0.00 44 1012.3
20260504212444 53 0 7.0 15.0 0.00 0.00 0.00 42 1012.5
20260504211937 54 104 8.0 15.0 0.00 0.00 0.00 39 1012.5
20260504211432 55 81 8.0 17.0 0.00 0.00 0.00 37 1012.3
20260504210926 57 0 6.0 17.0 0.00 0.00 0.00 35 1012.3
20260504210420 58 69 5.0 11.0 0.00 0.00 0.00 32 1012.2
20260504205915 58 77 5.0 11.0 0.00 0.00 0.00 31 1012.2
20260504205630 58 65 5.0 9.0 0.00 0.00 0.00 29 1012.2
20260504204902 59 77 5.0 10.0 0.00 0.00 0.00 28 1012.3
20260504204356 59 31 5.0 10.0 0.00 0.00 0.00 30 1012.5
20260504204330 59 329 7.0 13.0 0.00 0.00 0.00 32 1012.6
20260504203344 58 0 9.0 15.0 0.00 0.00 0.00 33 1012.6
20260504202837 57 325 9.0 16.0 0.00 0.00 0.00 35 1012.6
20260504202332 55 327 7.0 16.0 0.00 0.00 0.00 42 1012.6
20260504201826 54 239 9.0 17.0 0.00 0.00 0.00 39 1012.6
20260504201320 53 329 11.0 17.0 0.00 0.00 0.00 44 1012.6
20260504200814 52 237 11.0 19.0 0.00 0.00 0.00 40 1012.8
20260504200308 51 0 12.0 19.0 0.00 0.00 0.00 45 1012.8
20260504195801 50 213 13.0 23.0 0.00 0.00 0.00 49 1013.0
20260504195256 49 301 15.0 24.0 0.00 0.00 0.00 50 1013.0
20260504194749 49 234 17.0 27.0 0.00 0.00 0.00 48 1013.0
20260504194503 50 0 15.0 27.0 0.00 0.00 0.00 47 1013.1
20260504193738 50 237 12.0 22.0 0.00 0.00 0.00 44 1012.8
20260504193452 50 0 14.0 27.0 0.00 0.00 0.00 43 1012.8
20260504192726 51 233 16.0 27.0 0.00 0.00 0.00 42 1013.0
20260504192220 52 231 16.0 25.0 0.00 0.00 0.00 42 1013.0
20260504191714 53 237 14.0 26.0 0.00 0.00 0.00 41 1013.0
20260504191208 53 0 14.0 26.0 0.00 0.00 0.00 42 1012.8
20260504190930 55 0 14.0 25.0 0.00 0.00 0.00 42 1013.0
20260504190156 55 306 14.0 23.0 0.00 0.00 0.00 40 1013.0
20260504190127 56 0 14.0 24.0 0.00 0.00 0.00 38 1012.8
20260504185144 56 311 16.0 25.0 0.00 0.00 0.00 37 1012.8
20260504184638 56 228 15.0 25.0 0.00 0.00 0.00 35 1013.0
20260504184132 56 318 11.0 23.0 0.00 0.00 0.00 37 1013.1
20260504183627 56 295 10.0 19.0 0.00 0.00 0.00 37 1013.1
20260504183120 56 308 13.0 22.0 0.00 0.00 0.00 36 1013.4
20260504182614 57 311 13.0 22.0 0.00 0.00 0.00 34 1013.2
20260504182108 57 312 11.0 21.0 0.00 0.00 0.00 36 1013.4
20260504181602 56 0 11.0 18.0 0.00 0.00 0.00 37 1013.2
20260504181056 56 295 10.0 19.0 0.00 0.00 0.00 36 1013.2
20260504180550 56 303 10.0 21.0 0.00 0.00 0.00 36 1013.4
20260504180044 56 311 10.0 21.0 0.00 0.00 0.00 35 1013.6
20260504175538 55 0 8.0 17.0 0.00 0.00 0.00 37 1013.6
20260504175032 54 342 8.0 15.0 0.00 0.00 0.00 40 1013.6
20260504174526 53 233 8.0 15.0 0.00 0.00 0.00 39 1013.8
20260504174020 53 295 8.0 15.0 0.00 0.00 0.00 41 1013.9
20260504173736 52 304 6.0 15.0 0.00 0.00 0.00 40 1014.0